Weather History for Vero Beach, FL

Change the Weather History Date:

Wednesday, September 18, 2013

  Actual Average Record
Temperature  
Mean Temperature 81 °F 81 °F  
Max Temperature 87 °F 88 °F 95 °F (1987)
Min Temperature 74 °F 73 °F 67 °F (2001)
Degree Days  
Heating Degree Days 0 0  
Month to date heating degree days 0 0  
Since 1 July heating degree days 0 0  
Cooling Degree Days 16 16  
Month to date cooling degree days 282 288  
Year to date cooling degree days 2688 2586  
Growing Degree Days 30 (Base 50)    
Moisture  
Dew Point 75 °F    
Average Humidity 83    
Maximum Humidity 100    
Minimum Humidity 65    
Precipitation  
Precipitation 0.40 in 0.24 in 3.68 in (1953)
Month to date precipitation 4.49 4.08  
Year to date precipitation 32.17 38.78  
Sea Level Pressure  
Sea Level Pressure 30.00 in    
Wind  
Wind Speed 8 mph (ENE)    
Max Wind Speed 20 mph    
Max Gust Speed 24 mph    
Visibility 9 miles    
Events Rain    
T = Trace of Precipitation, MM = Missing Value Source: NWS Daily Summary

Daily Weather History Graph

Daily Weather History Graph

Search for Another Location

Airport:

Trip Planner

Search our weather history database for the weather conditions in past years. The results will help you decide how hot, cold, wet, or windy it might be!

Date:

Astronomy

Sep. 18, 2013 Rise Set
Actual Time 7:08 AM EDT 7:22 PM EDT
Civil Twilight 6:45 AM EDT 7:45 PM EDT
Nautical Twilight 6:17 AM EDT 8:13 PM EDT
Astronomical Twilight 5:50 AM EDT 8:40 PM EDT
Moon 6:46 PM EDT (9/18) 6:10 AM EDT (9/18)
Length of Visible Light 13h 00m
Length of Day
12h 14m
Waxing Gibbous, 99% of the Moon is Illuminated
Sep 18
Waxing Gibbous
Sep 19
Full
Sep 26
Last Quarter
Oct 4
New
Oct 11
First Quarter

Hourly Weather History & Observations

Time (EDT) Temp. Heat Index Dew Point Humidity Pressure Visibility Wind Dir Wind Speed Gust Speed Precip Events Conditions
12:53 AM 78.1 °F - 75.0 °F 90% 29.99 in 10.0 mi ESE 12.7 mph - N/A   Mostly Cloudy
1:04 AM 77.0 °F - 75.2 °F 94% 29.99 in 7.0 mi ESE 9.2 mph 17.3 mph 0.00 in Rain Light Rain
1:27 AM 77.0 °F - 75.2 °F 94% 29.99 in 10.0 mi East 6.9 mph - 0.00 in   Mostly Cloudy
1:53 AM 78.1 °F - 73.9 °F 87% 29.98 in 10.0 mi East 6.9 mph - 0.00 in   Partly Cloudy
2:53 AM 78.1 °F - 73.9 °F 87% 29.97 in 10.0 mi East 5.8 mph - N/A   Mostly Cloudy
3:53 AM 77.0 °F - 73.9 °F 90% 29.97 in 10.0 mi NNE 6.9 mph - N/A   Scattered Clouds
4:53 AM 77.0 °F - 73.9 °F 90% 29.96 in 10.0 mi ENE 6.9 mph - 0.01 in   Partly Cloudy
5:53 AM 78.1 °F - 73.9 °F 87% 29.96 in 10.0 mi ENE 5.8 mph - N/A   Clear
6:53 AM 77.0 °F - 73.9 °F 90% 29.99 in 10.0 mi SE 8.1 mph - N/A   Mostly Cloudy
7:37 AM 75.2 °F - 75.2 °F 100% 30.00 in 7.0 mi Calm Calm - 0.06 in Rain Light Rain
7:45 AM 75.2 °F - 75.2 °F 100% 30.00 in 7.0 mi NE 4.6 mph - 0.07 in Rain Light Rain
7:53 AM 77.0 °F - 75.9 °F 96% 30.00 in 10.0 mi NE 4.6 mph - 0.07 in Rain Light Rain
8:53 AM 80.1 °F 85.8 °F 77.0 °F 90% 30.01 in 10.0 mi ENE 4.6 mph - 0.00 in   Clear
9:53 AM 82.0 °F 89.4 °F 75.9 °F 82% 30.02 in 10.0 mi East 9.2 mph - N/A   Clear
10:53 AM 84.0 °F 92.6 °F 75.9 °F 76% 30.03 in 10.0 mi East 8.1 mph - N/A   Clear
11:53 AM 84.0 °F 92.6 °F 75.9 °F 76% 30.03 in 10.0 mi ENE 8.1 mph - N/A   Partly Cloudy
12:53 PM 86.0 °F 96.0 °F 75.9 °F 72% 30.02 in 10.0 mi ENE 12.7 mph - N/A   Partly Cloudy
1:53 PM 84.0 °F 91.9 °F 75.0 °F 74% 30.01 in 10.0 mi ENE 15.0 mph - N/A   Partly Cloudy
2:53 PM 86.0 °F 93.8 °F 73.9 °F 67% 30.00 in 10.0 mi ENE 13.8 mph - N/A   Clear
3:53 PM 84.9 °F 94.1 °F 75.9 °F 74% 29.98 in 10.0 mi NNE 12.7 mph - N/A   Clear
4:53 PM 82.9 °F 90.2 °F 75.0 °F 77% 29.98 in 10.0 mi ENE 10.4 mph - N/A   Clear
5:53 PM 84.0 °F 91.2 °F 73.9 °F 72% 29.98 in 10.0 mi East 11.5 mph - N/A   Mostly Cloudy
6:53 PM 81.0 °F 86.7 °F 75.0 °F 82% 29.99 in 10.0 mi NE 6.9 mph - N/A   Mostly Cloudy
7:00 PM 80.6 °F 86.2 °F 75.2 °F 84% 29.99 in 10.0 mi NE 8.1 mph - N/A   Clear
7:31 PM 75.2 °F - 73.4 °F 94% 30.01 in 1.8 mi East 8.1 mph 21.9 mph 0.08 in Rain Heavy Rain
7:38 PM 75.2 °F - 73.4 °F 94% 30.00 in 1.8 mi SE 4.6 mph - 0.24 in Rain Heavy Rain
7:44 PM 75.2 °F - 73.4 °F 94% 30.00 in 3.0 mi Calm Calm - 0.29 in Rain Rain
7:53 PM 77.0 °F - 75.0 °F 94% 30.00 in 10.0 mi NE 4.6 mph - 0.31 in Rain Light Rain
8:53 PM 78.1 °F - 75.0 °F 90% 30.01 in 10.0 mi NE 4.6 mph - 0.00 in   Clear
9:53 PM 75.9 °F - 73.9 °F 94% 30.04 in 10.0 mi NNE 6.9 mph - 0.01 in   Scattered Clouds
10:53 PM 77.0 °F - 75.0 °F 94% 30.03 in 10.0 mi ENE 6.9 mph - N/A   Partly Cloudy
11:53 PM 75.9 °F - 75.0 °F 97% 30.03 in 10.0 mi Calm Calm - N/A   Clear